Stephen Cunningham

Recruteur - Middlesbrough
9 Déc 2027
Jeudi
Processus

Personnalité

Adaptabilité (8) Ambition (8) Controverse (9) Loyauté (18) Pression (20) Professionnalisme (8) Sportivité (11) Tempérament (5)

Profil

Style d'entraînement Démocratique
Diplôme Continental Pro
Détermination 11
Gestion des joueurs 7
Motivation 9
Discipline 9
Satisfaction professionnelle
100%
Fatigue
0%
Rôle Recruteur
Salaire 86.6K p/s
Contrat 14.03.2029

Performance

Comportement Bon
Efficacité de l'entraînement
45%
Développement des joueurs
55%
Prévention des blessures
60%
Mise en place tactique
60%

Événements récents

A participé à une réunion de recrutement 14j
A participé à une réunion de recrutement 21j
A participé à une réunion de recrutement 28j
A participé à une réunion de recrutement 35j
Anniversaire 35j
A participé à une réunion de recrutement 42j
A participé à une réunion de recrutement 49j
A participé à une réunion de recrutement 56j

Suivi en cours

120
Joueur Club Statut Capacité Confiance Observé Dernière observation Dernier vote
Sascha Britschgi Padova Actif 125 / 129 40% 3 22.06.2027 -
Josh King Chelsea Actif 139 / 145 40% 2 22.06.2027 -
Joel McGregor Swindon Town Actif 89 / 95 40% 2 22.06.2027 -
Tom Atcheson Blackburn Rovers Rapport prêt 109 / 116 76% 1 03.06.2027 -
Ibrahim Maza Bayer Leverkusen Actif 143 / 151 40% 4 31.05.2027 -
Leandro Martins Benfica Actif 88 / 101 40% 3 30.05.2027 -
Ali Ahmed Norwich City Actif 122 / 128 40% 4 29.05.2027 -
Giacomo Raspadori Atalanta Actif 145 / 144 40% 3 29.05.2027 -
David Turnbull Cardiff City Actif 120 / 114 40% 1 29.05.2027 -
Christos Mouzakitis Hull City Actif 137 / 137 40% 3 27.05.2027 -
Matías Gómez Granada Actif 112 / 122 40% 1 27.05.2027 -
Mats Wieffer Brighton Actif 156 / 154 40% 7 26.05.2027 -
Othmane Maamma Watford Actif 132 / 126 40% 3 26.05.2027 -
Hlompho Lorch Ajax Cape Town Actif 107 / 98 40% 1 24.05.2027 -
Ethan Galbraith Swansea City Actif 128 / 127 40% 4 23.05.2027 -
Davide Bartesaghi AC Milan Actif 126 / 132 40% 3 23.05.2027 -
Dango Ouattara Brentford Actif 152 / 140 40% 3 23.05.2027 -
Daniel Kelly Oxford United Actif 117 / 117 40% 1 23.05.2027 -
Ronald Swansea City Actif 124 / 129 40% 2 22.05.2027 -
Nicolas Jackson Aston Villa Actif 147 / 147 40% 4 21.05.2027 -
Xavier Amaechi Plymouth Argyle Actif 114 / 112 40% 1 21.05.2027 -
Jack Rudoni Coventry City Actif 140 / 137 40% 2 19.05.2027 -
Kevin Fulham Actif 149 / 154 40% 1 19.05.2027 -
Amine Adli Bournemouth Actif 141 / 149 40% 3 18.05.2027 -
Finn Azaz Southampton Actif 129 / 130 40% 3 18.05.2027 -
Keagan Tau Ajax Cape Town Actif 86 / 95 40% 3 17.05.2027 -
Dylan Lawlor Cardiff City Actif 117 / 122 40% 4 16.05.2027 -
Juan Giménez Celta Actif 116 / 123 40% 1 16.05.2027 -
Georginio Rutter Brighton Actif 149 / 150 40% 2 07.05.2027 -
Derry Murkin Derby County Actif 127 / 121 40% 1 07.05.2027 -
Caleb Yirenkyi Coventry City Actif 129 / 145 40% 1 04.05.2027 -
Zaïd BafdilI Sporting CP Actif 89 / 98 40% 1 04.05.2027 -
Kazunari Kita Real Sociedad Actif 99 / 107 40% 1 04.05.2027 -
Mduduzi Shabalala Kaizer Chiefs Actif 121 / 122 40% 3 30.04.2027 -
Ollie Tanner Cardiff City Actif 116 / 111 40% 2 30.04.2027 -
Rodrigo Gomes Wolverhampton Actif 138 / 145 40% 1 30.04.2027 -
Williams Manyama SuperSport United Actif 122 / 122 40% 4 29.04.2027 -
Jack McGlynn Stoke City Actif 129 / 127 40% 1 29.04.2027 -
Kwame Poku Queens Park Rangers Actif 119 / 119 40% 1 27.04.2027 -
Tshepang Moremi Orlando Pirates Actif 119 / 116 40% 1 27.04.2027 -
Mandla Erasmus SuperSport United Actif 114 / 121 40% 2 26.04.2027 -
Louie Barry Sheffield Wednesday Actif 130 / 124 40% 1 26.04.2027 -
Amadou Onana Aston Villa Actif 156 / 157 40% 3 24.04.2027 -
Oswin Appollis Orlando Pirates Actif 127 / 114 40% 2 22.04.2027 -
Borja Sainz Fiorentina Actif 152 / 149 40% 2 21.04.2027 -
Reiss Nelson Aston Villa Actif 146 / 145 40% 1 21.04.2027 -
Adam Wharton Crystal Palace Actif 153 / 152 40% 5 20.04.2027 -
Zane Albarus Cambridge United Actif 99 / 95 40% 2 20.04.2027 -
Mikkel Damsgaard Brentford Actif 146 / 142 40% 3 19.04.2027 -
Ernie Weaver AFC Wimbledon Actif 104 / 116 40% 2 15.04.2027 -
Martim Cunha Porto Actif 98 / 109 40% 1 15.04.2027 -
Riley Owen Trento Actif 107 / 108 40% 1 15.04.2027 -
Daniel Kyerewaa Reading Actif 108 / 116 40% 2 14.04.2027 -
Stanley Mills Oxford United Actif 123 / 125 40% 1 14.04.2027 -
Matvey Kislyak CSKA Moscow Actif 138 / 146 40% 1 14.04.2027 -
Jack Diamond Stockport County Actif 112 / 120 40% 1 12.04.2027 -
Ilyas Ansah Hull City Actif 129 / 137 40% 1 12.04.2027 -
Tom Fellows Southampton Actif 140 / 135 40% 5 09.04.2027 -
Siyanda Ndlovu Bloemfontein Celtic Actif 112 / 117 40% 2 09.04.2027 -
Jofre Torrents Ajax Actif 122 / 130 40% 1 07.04.2027 -
Boubacar Kamara Aston Villa Actif 168 / 161 40% 1 04.04.2027 -
Manor Solomon West Ham United Actif 133 / 135 40% 1 03.04.2027 -
Christ Inao Oulaï Fiorentina Actif 134 / 142 40% 2 01.04.2027 -
Yeremy Pino Crystal Palace Actif 149 / 154 40% 2 26.03.2027 -
Percy Jali Free State Stars Actif 104 / 104 40% 1 25.03.2027 -
Luiz Henrique West Ham United Actif 138 / 145 40% 1 24.03.2027 -
Óscar Mingueza Crystal Palace Actif 158 / 149 40% 3 22.03.2027 -
Adrien Truffert Bournemouth Actif 146 / 155 40% 4 22.03.2027 -
Ryan Sessegnon Fulham Actif 153 / 143 40% 2 18.03.2027 -
Scott Twine Bristol City Actif 127 / 126 40% 2 18.03.2027 -
Keagan Phiri Platinum Stars Actif 90 / 103 40% 2 17.03.2027 -
Rivaldo Grobler Free State Stars Actif 98 / 99 40% 2 17.03.2027 -
Finn Jeltsch VfB Stuttgart Actif 128 / 142 40% 1 17.03.2027 -
James Dornelly Peterborough United Actif 104 / 114 40% 1 14.03.2027 -
Derrick Fordjour Medeama Actif 89 / 88 40% 2 12.03.2027 -
Florentino Luís Ipswich Town Actif 141 / 141 40% 1 10.03.2027 -
Carlos Vicente Birmingham Perdu 145 / 144 40% 1 10.03.2027 -
Assane Diao Lazio Actif 150 / 151 40% 1 08.03.2027 -
Mfundo Vilakazi Kaizer Chiefs Actif 108 / 120 40% 1 02.03.2027 -
Jan Bürger Gillingham Actif 117 / 120 40% 1 01.03.2027 -
Jack Hinshelwood Brighton Actif 140 / 146 40% 1 01.03.2027 -
Bosun Lawal Stoke City Actif 133 / 120 40% 1 31.12.2026 -
André Wolverhampton Actif 148 / 149 40% 1 28.12.2026 -
Noah Sadiki Sunderland Actif 147 / 146 40% 3 26.12.2026 -
Nicolás Fernández Mercau Shakhtar Actif 146 / 138 40% 2 26.12.2026 -
Ethan Ampadu Leeds United Actif 142 / 146 40% 1 26.12.2026 -
Anel Ahmedhodžić Burnley Actif 131 / 133 40% 1 25.12.2026 -
Elliot Anderson Manchester City Actif 146 / 159 40% 3 24.12.2026 -
Imrân Louza Watford Actif 123 / 126 40% 1 24.12.2026 -
Jake O'Brien Everton Actif 143 / 148 40% 1 23.12.2026 -
Nathan Collins Brentford Actif 144 / 146 40% 1 23.12.2026 -
Soungoutou Magassa West Ham United Actif 140 / 132 40% 2 21.12.2026 -
Loïc Williams Colorado Rapids Actif 121 / 132 40% 1 15.12.2026 -
Habib Diarra Sunderland Actif 131 / 142 40% 3 09.12.2026 -
Teden Mengi Luton Town Actif 122 / 117 40% 1 09.12.2026 -
Bradley Tau SuperSport United Actif 126 / 130 40% 3 08.12.2026 -
Aaron Hickey Brentford Actif 136 / 148 40% 4 05.12.2026 -
James Garner Everton Actif 151 / 157 40% 2 03.12.2026 -
Jacques Ekomié Wrexham Actif 132 / 132 40% 1 03.12.2026 -
Yehor Yarmoliuk Brentford Actif 141 / 145 40% 1 02.12.2026 -
Bobby Thomas Coventry City Actif 130 / 138 40% 1 30.11.2026 -
Christian Krasnodar Actif 135 / 127 40% 1 30.11.2026 -
Welington Southampton Actif 125 / 136 40% 2 29.11.2026 -
Jarrad Branthwaite Everton Actif 159 / 145 40% 2 28.11.2026 -
Lewis Gibson Preston Actif 129 / 118 40% 1 28.11.2026 -
Juan Manuel Sanabria Real Salt Lake Actif 130 / 131 40% 2 26.11.2026 -
Alhassan Yusuf New England Revolution Actif 123 / 115 40% 1 25.11.2026 -
Quinten Timber Crystal Palace Actif 155 / 147 40% 3 23.11.2026 -
Rico Lewis Manchester City Actif 154 / 156 40% 2 23.11.2026 -
Facundo Mura Inter Miami CF Actif 138 / 121 40% 2 20.11.2026 -
Callum Doyle Wrexham Actif 129 / 130 40% 2 19.11.2026 -
Lukas Engel Real Salt Lake Actif 136 / 117 40% 3 14.11.2026 -
Juanlu Bournemouth Actif 147 / 148 40% 1 13.11.2026 -
Malick Thiaw West Ham United Actif 154 / 159 40% 1 12.11.2026 -
Bryan Ramírez FC Cincinnati Actif 126 / 129 40% 1 12.11.2026 -
Toby Collyer West Bromwich Albion Actif 121 / 132 40% 1 06.11.2026 -
Kimito Nono Sanfrecce Hiroshima Actif 125 / 124 40% 1 20.10.2026 -
Shea Charles Southampton Actif 137 / 142 40% 1 18.10.2026 -
David Brekalo Orlando City Actif 140 / 117 40% 1 12.10.2026 -
James Sands New York City Actif 118 / 126 40% 1 08.10.2026 -